1514286000.42,43604,8.38,72974.0,3.07,-29.07,-29.79,0,*75
1514286001.67,43605,8.38,72964.5,3.07,-28.69,-29.51,0,*77
1514286002.93,43606,8.31,72958.5,3.11,-28.47,-29.13,0,*79
1514286004.18,43607,8.38,72954.8,3.11,-28.53,-29.17,0,*79
1514286005.46,43608,8.38,72962.5,3.11,-28.79,-29.51,0,*7C
1514286006.7,43609,8.38,72950.0,3.13,-28.79,-29.39,0,*71
1514286007.95,43610,8.31,72934.0,3.15,-29.13,-29.79,0,*76
1514286009.18,43611,8.38,72942.5,3.15,-29.13,-29.79,0,*77
1514286010.41,43612,8.38,72944.0,3.17,-29.35,-30.11,0,*74
1514286011.64,43613,8.38,72944.8,3.17,-29.61,-30.39,0,*7E
1514286012.88,43614,8.31,72940.8,3.19,-30.23,-30.95,0,*7F
1514286014.17,43615,8.38,72944.3,3.19,-30.17,-30.77,0,*75
1514286015.39,43616,8.38,72944.5,3.17,-30.55,-31.17,0,*79
1514286016.61,43617,8.38,72958.5,3.17,-30.61,-31.33,0,*79
1514286017.83,43618,8.38,72962.8,3.17,-30.61,-31.17,0,*70
1514286019.04,43619,8.38,72970.0,3.17,-30.11,-30.67,0,*70
1514286020.3,43620,8.38,72972.8,3.19,-29.57,-30.17,0,*79
1514286021.52,43621,8.38,72972.0,3.17,-29.07,-29.73,0,*79
1514286022.77,43622,8.38,72974.8,3.19,-28.85,-29.39,0,*71
1514286024.03,43623,8.38,72972.0,3.19,-29.83,-30.61,0,*72
1514286025.3,43624,8.38,72970.0,3.19,-30.61,-31.39,0,*7D
1514286026.55,43625,8.38,72970.3,3.19,-31.23,-32.01,0,*73
1514286027.81,43626,8.38,72978.8,3.19,-30.95,-31.45,0,*7F
1514286029.03,43627,8.38,72982.5,3.17,-31.11,-31.67,0,*7D
1514286030.25,43628,8.38,72986.8,3.17,-30.45,-31.11,0,*73
1514286031.53,43629,8.38,72982.3,3.19,-30.01,-30.73,0,*79
1514286032.78,43630,8.38,72964.3,3.17,-30.05,-30.61,0,*78
1514286034.06,43631,8.31,72950.8,3.19,-29.73,-30.51,0,*7D
1514286035.33,43632,8.38,72944.5,3.19,-30.05,-30.73,0,*77
1514286036.54,43633,8.31,72964.3,3.17,-30.23,-30.83,0,*73
1514286037.73,43634,8.31,72968.5,3.17,-30.45,-31.17,0,*78
1514286038.97,43635,8.38,72984.5,3.19,-30.39,-31.05,0,*7F
1514286040.2,43636,8.38,72992.8,3.19,-30.33,-31.05,0,*76
1514286041.48,43637,8.38,72988.0,3.19,-30.17,-30.89,0,*74
1514286042.75,43638,8.38,72984.8,3.19,-30.05,-30.73,0,*7D
1514286044.04,43639,8.38,72976.0,3.19,-29.51,-30.17,0,*77
1514286045.27,43640,8.38,72966.3,3.19,-29.67,-30.33,0,*7A
1514286046.52,43641,8.38,72958.0,3.19,-29.83,-30.51,0,*75
1514286047.75,43642,8.38,72948.3,3.21,-29.73,-30.33,0,*76
1514286049.0,43643,8.38,72948.3,3.21,-29.73,-30.39,0,*7D
1514286050.25,43644,8.38,72958.0,3.21,-29.89,-30.55,0,*75
1514286051.46,43645,8.38,72960.3,3.25,-30.11,-30.83,0,*72
1514286052.67,43646,8.38,72956.5,3.25,-29.95,-30.67,0,*7F
1514286053.89,43647,8.38,72966.8,3.25,-30.01,-30.67,0,*7B
1514286055.12,43648,8.38,72960.0,3.25,-29.95,-30.55,0,*70
1514286056.32,43649,8.38,72964.8,3.25,-29.79,-30.45,0,*72
1514286057.55,43650,8.38,72966.0,3.25,-29.45,-30.17,0,*72
1514286058.83,43651,8.38,72944.8,3.27,-29.51,-30.01,0,*73
1514286060.04,43652,8.38,72948.8,3.29,-29.57,-30.27,0,*7C
1514286061.27,43653,8.38,72958.8,3.29,-29.51,-30.11,0,*7E
1514286062.5,43654,8.38,72960.3,3.27,-29.45,-30.11,0,*72
1514286063.7,43655,8.38,72962.3,3.29,-29.61,-30.27,0,*7E
1514286064.96,43656,8.38,72968.8,3.33,-29.73,-30.27,0,*75
1514286066.23,43657,8.38,72972.0,3.31,-29.73,-30.39,0,*79
1514286067.46,43658,8.38,72958.8,3.31,-30.11,-30.67,0,*71
1514286068.71,43659,8.38,72966.8,3.31,-29.79,-30.39,0,*7D
1514286069.98,43660,8.38,72964.3,3.31,-29.73,-30.39,0,*7D
1514286071.21,43661,8.31,72972.5,3.33,-29.83,-30.45,0,*7A
1514286072.47,43662,8.31,72958.5,3.33,-29.73,-30.45,0,*76
1514286073.75,43663,8.38,72944.0,3.33,-29.73,-30.39,0,*7C
1514286074.98,43664,8.38,72940.3,3.35,-29.83,-30.55,0,*78
1514286076.22,43665,8.38,72934.3,3.35,-30.11,-30.73,0,*7E
1514286077.51,43666,8.38,72934.3,3.33,-30.17,-30.77,0,*79
1514286078.77,43667,8.38,72938.0,3.33,-30.23,-30.89,0,*7E
1514286079.97,43668,8.38,72938.3,3.35,-30.67,-31.33,0,*77
1514286081.21,43669,8.31,72932.0,3.35,-30.67,-31.23,0,*77
1514286082.46,43670,8.38,72942.5,3.35,-30.55,-31.23,0,*7E
1514286083.69,43671,8.38,72948.3,3.33,-30.45,-31.05,0,*7C
1514286084.98,43672,8.31,72948.5,3.33,-30.17,-30.77,0,*7C
1514286086.21,43673,8.38,72950.0,3.31,-30.27,-30.83,0,*77
1514286087.51,43674,8.38,72948.5,3.33,-30.17,-30.77,0,*7A
1514286088.76,43675,8.38,72948.8,3.33,-30.23,-30.95,0,*70
1514286090.05,43676,8.38,72936.8,3.33,-29.35,-30.01,0,*71
1514286091.29,43677,8.38,72936.3,3.37,-29.13,-29.79,0,*77
1514286092.53,43678,8.38,72930.8,3.35,-29.45,-30.01,0,*7E
1514286093.81,43679,8.38,72928.0,3.37,-30.51,-31.23,0,*71
1514286095.03,43680,8.38,72934.8,3.35,-31.01,-31.73,0,*74
1514286096.26,43681,8.38,72944.0,3.35,-31.33,-31.95,0,*7C
1514286097.52,43682,8.38,72956.8,3.35,-31.23,-31.91,0,*7A
1514286098.77,43683,8.38,72966.0,3.33,-30.95,-31.67,0,*78
1514286100.02,43684,8.38,72966.5,3.33,-31.05,-31.85,0,*7B
1514286101.27,43685,8.38,72964.8,3.31,-30.27,-30.95,0,*79
1514286102.53,43686,8.38,72970.3,3.33,-29.17,-29.95,0,*7B
1514286103.77,43687,8.38,72968.0,3.33,-29.83,-30.45,0,*72
1514286105.03,43688,8.38,72966.0,3.33,-29.23,-29.89,0,*7F
1514286106.29,43689,8.38,72974.8,3.33,-29.23,-29.89,0,*7E
1514286107.55,43690,8.38,72982.3,3.33,-29.83,-30.55,0,*75
1514286108.81,43691,8.38,72966.3,3.35,-30.01,-30.73,0,*74
1514286110.02,43692,8.38,72950.8,3.35,-30.11,-30.83,0,*79
1514286111.26,43693,8.38,72944.8,3.35,-30.01,-30.67,0,*73
1514286112.51,43694,8.38,72944.3,3.37,-30.33,-30.89,0,*77
1514286113.76,43695,8.38,72968.8,3.37,-31.05,-31.73,0,*76
1514286115.04,43696,8.38,72954.3,3.37,-30.51,-31.23,0,*70
1514286116.26,43697,8.38,72950.0,3.35,-30.39,-31.05,0,*79
1514286117.51,43698,8.38,72930.5,3.35,-30.51,-31.23,0,*7C
1514286118.74,43699,8.38,72948.8,3.35,-30.73,-31.33,0,*7C
1514286120.0,43700,8.38,72932.5,3.33,-30.73,-31.45,0,*7A
1514286121.29,43701,8.31,72902.0,3.33,-30.95,-31.61,0,*75
1514286122.55,43702,8.38,72918.8,3.33,-30.89,-31.45,0,*7D
1514286123.81,43703,8.38,72942.3,3.33,-30.77,-31.45,0,*7D
1514286125.09,43704,8.38,72914.0,3.33,-30.73,-31.39,0,*75
1514286126.34,43705,8.38,72910.8,3.31,-30.27,-30.95,0,*70
1514286127.6,43706,8.38,72928.0,3.33,-30.33,-30.89,0,*79
1514286128.83,43707,8.38,72906.8,3.31,-30.23,-30.83,0,*71
1514286130.11,43708,8.38,72922.8,3.33,-30.77,-31.61,0,*70
1514286131.4,43709,8.38,72938.8,3.33,-31.23,-31.85,0,*7B
1514286132.62,43710,8.38,72924.8,3.31,-31.17,-32.01,0,*79
1514286133.86,43711,8.38,72930.0,3.31,-30.39,-31.01,0,*76
1514286135.1,43712,8.38,72924.8,3.31,-30.83,-31.57,0,*77
1514286136.33,43713,8.38,72938.5,3.31,-31.67,-32.39,0,*76
1514286137.55,43714,8.38,72940.5,3.29,-31.57,-32.23,0,*70
1514286138.76,43715,8.38,72926.3,3.29,-30.67,-31.29,0,*7A
1514286139.98,43716,8.31,72948.8,3.29,-30.45,-30.95,0,*7F
1514286141.18,43717,8.38,72940.8,3.29,-31.01,-31.67,0,*73
1514286142.42,43718,8.38,72940.0,3.27,-31.39,-32.13,0,*79
1514286143.67,43719,8.38,72944.8,3.27,-31.57,-32.23,0,*73
1514286144.91,43720,8.38,72938.5,3.27,-31.51,-32.13,0,*7C
1514286146.13,43721,8.38,72944.0,3.25,-32.23,-32.97,0,*75
1514286147.32,43722,8.38,72952.8,3.25,-32.57,-33.21,0,*79
1514286148.56,43723,8.38,72942.5,3.21,-32.69,-33.27,0,*77
1514286149.84,43724,8.38,72950.0,3.19,-32.63,-33.43,0,*73
1514286151.03,43725,8.38,72954.5,3.17,-32.91,-33.67,0,*77
1514286152.26,43726,8.38,72958.5,3.17,-32.69,-33.49,0,*7F
1514286153.49,43727,8.38,72958.3,3.15,-32.39,-33.03,0,*77
1514286154.71,43728,8.38,72958.3,3.13,-32.63,-33.21,0,*71
1514286155.94,43729,8.38,72958.5,3.13,-32.75,-33.37,0,*70
1514286157.19,43730,8.38,72964.0,3.11,-33.03,-33.73,0,*7A
1514286158.41,43731,8.38,72970.8,3.09,-33.03,-33.77,0,*76
1514286159.69,43732,8.38,72970.3,3.07,-32.75,-33.49,0,*76
1514286160.89,43733,8.38,72968.8,3.05,-32.91,-33.67,0,*73
1514286162.12,43734,8.38,72968.5,3.05,-32.57,-33.31,0,*7D
1514286163.35,43735,8.38,72966.5,3.01,-32.79,-33.21,0,*75
1514286164.6,43736,8.38,72970.5,2.95,-32.85,-33.43,0,*7D
1514286165.83,43737,8.38,72968.8,2.95,-32.69,-33.31,0,*7B
1514286167.06,43738,8.38,72966.8,2.95,-32.69,-33.31,0,*74
1514286168.29,43739,8.38,72978.8,2.95,-32.69,-33.43,0,*70
1514286169.53,43740,8.38,72976.3,2.95,-32.69,-33.43,0,*7E
1514286170.81,43741,8.38,72978.0,2.93,-32.07,-32.85,0,*7A
1514286172.03,43742,8.38,72976.3,2.91,-31.91,-32.57,0,*78
1514286173.23,43743,8.38,72978.8,2.91,-32.23,-32.91,0,*79
1514286174.46,43744,8.38,72984.3,2.91,-32.01,-32.63,0,*73
1514286175.72,43745,8.38,72988.8,2.91,-32.07,-32.79,0,*7F
1514286176.98,43746,8.38,72994.8,2.89,-32.19,-32.69,0,*7B
1514286178.21,43747,8.38,72994.8,2.87,-31.95,-32.69,0,*73
1514286179.45,43748,8.38,72988.3,2.87,-31.95,-32.69,0,*7C
1514286180.68,43749,8.38,72996.0,2.87,-32.07,-32.69,0,*75
1514286181.94,43750,8.38,72994.5,2.87,-31.61,-32.19,0,*79
1514286183.17,43751,8.38,72994.3,2.85,-31.45,-32.01,0,*75
1514286184.42,43752,8.38,72994.3,2.87,-31.23,-31.91,0,*7E
1514286185.68,43753,8.38,72990.8,2.85,-30.27,-30.95,0,*7D
1514286186.94,43754,8.38,72986.8,2.87,-30.17,-30.89,0,*76
1514286188.2,43755,8.38,72984.8,2.89,-29.83,-30.51,0,*79
1514286189.45,43756,8.38,72972.5,2.89,-29.83,-30.55,0,*7E
1514286190.74,43757,8.38,72968.8,2.89,-30.05,-30.73,0,*7D
1514286192.02,43758,8.38,72972.3,2.89,-30.17,-30.89,0,*74
1514286193.28,43759,8.38,72968.5,2.91,-30.17,-30.95,0,*71
1514286194.51,43760,8.38,72968.0,2.91,-29.45,-30.17,0,*7E
1514286195.74,43761,8.38,72970.0,2.91,-29.73,-30.45,0,*7D
1514286196.99,43762,8.38,72970.5,2.95,-30.05,-30.61,0,*75
1514286198.27,43763,8.38,72968.8,2.93,-29.89,-30.55,0,*79
1514286199.55,43764,8.38,72974.0,2.97,-29.89,-30.55,0,*7A
1514286200.79,43765,8.38,72970.5,2.97,-29.83,-30.33,0,*71
1514286202.06,43766,8.38,72958.5,2.97,-29.17,-29.73,0,*73
1514286203.3,43767,8.38,72954.8,3.01,-29.45,-30.01,0,*76
1514286204.54,43768,8.38,72950.0,3.01,-29.29,-29.73,0,*7E
1514286205.82,43769,8.38,72946.5,3.07,-28.91,-29.39,0,*75
1514286207.07,43770,8.38,72938.8,3.07,-28.75,-29.23,0,*7C
1514286208.32,43771,8.38,72928.3,3.07,-29.23,-29.89,0,*7F
1514286209.57,43772,8.38,72928.3,3.11,-29.45,-30.05,0,*77
1514286210.85,43773,8.38,72930.3,3.11,-30.05,-30.73,0,*7B
1514286212.1,43774,8.38,72938.5,3.11,-30.33,-30.95,0,*71
1514286213.32,43775,8.38,72942.8,3.09,-29.83,-30.55,0,*76
1514286214.58,43776,8.38,72948.8,3.11,-29.89,-30.67,0,*77
1514286215.86,43777,8.38,72950.3,3.11,-29.89,-30.51,0,*73
1514286217.11,43778,8.38,72956.0,3.11,-29.67,-30.39,0,*72
1514286218.31,43779,8.38,72950.8,3.13,-29.67,-30.27,0,*7E
1514286219.52,43780,8.38,72954.3,3.13,-29.67,-30.45,0,*7C
1514286220.76,43781,8.31,72950.8,3.13,-29.83,-30.61,0,*71
1514286221.99,43782,8.38,72960.0,3.13,-30.17,-30.83,0,*7B
1514286223.25,43783,8.38,72962.8,3.13,-30.17,-30.73,0,*75
1514286224.46,43784,8.38,72960.3,3.13,-30.11,-30.67,0,*71
1514286225.68,43785,8.38,72956.3,3.13,-29.79,-30.51,0,*73
1514286226.88,43786,8.38,72962.5,3.13,-29.45,-30.11,0,*7B
1514286228.11,43787,8.38,72962.5,3.15,-29.67,-30.27,0,*79
1514286229.36,43788,8.31,72962.0,3.15,-29.51,-30.11,0,*76
1514286230.59,43789,8.38,72964.8,3.17,-29.45,-30.05,0,*75
1514286231.79,43790,8.38,72966.5,3.17,-29.79,-30.27,0,*72
1514286233.07,43791,8.38,72966.5,3.19,-29.35,-29.89,0,*79
1514286234.33,43792,8.38,72964.8,3.19,-29.57,-30.17,0,*71
1514286235.61,43793,8.38,72968.3,3.19,-29.35,-30.05,0,*77
1514286236.89,43794,8.38,72974.8,3.19,-29.89,-30.51,0,*76
1514286238.14,43795,8.38,72974.0,3.19,-29.83,-30.51,0,*7D
1514286239.37,43796,8.38,72970.3,3.19,-29.67,-30.23,0,*71
1514286240.6,43797,8.38,72970.8,3.21,-30.23,-30.61,0,*75
1514286241.82,43798,8.38,72966.3,3.21,-30.33,-30.95,0,*70
1514286243.06,43799,8.38,72966.8,3.21,-30.39,-30.95,0,*7B
1514286244.31,43800,8.38,72968.0,3.21,-30.61,-31.11,0,*74
1514286245.54,43801,8.38,72968.8,3.21,-30.23,-30.73,0,*76
1514286246.78,43802,8.31,72964.3,3.19,-29.13,-29.67,0,*78
1514286248.01,43803,8.38,72968.8,3.25,-28.97,-29.35,0,*7C
1514286249.26,43804,8.38,72970.0,3.21,-29.01,-29.35,0,*71
1514286250.5,43805,8.38,72966.0,3.25,-28.63,-29.13,0,*75
1514286251.74,43806,8.38,72966.8,3.27,-28.31,-28.79,0,*7E
1514286252.99,43807,8.38,72968.0,3.27,-28.43,-28.97,0,*7A
1514286254.21,43808,8.38,72964.8,3.29,-28.53,-29.01,0,*74
1514286255.45,43809,8.38,72960.3,3.29,-29.23,-29.89,0,*73
1514286256.7,43810,8.38,72966.5,3.29,-29.01,-29.73,0,*7E
1514286257.94,43811,8.38,72962.5,3.31,-28.75,-29.23,0,*71
1514286259.2,43812,8.38,72964.8,3.33,-28.85,-29.39,0,*74
1514286260.46,43813,8.38,72970.8,3.33,-29.01,-29.57,0,*70
1514286261.71,43814,8.38,72968.5,3.33,-28.47,-28.85,0,*7A
1514286262.93,43815,8.38,72970.8,3.35,-28.31,-28.79,0,*7F
1514286264.19,43816,8.38,72968.8,3.37,-28.31,-28.63,0,*75
1514286265.47,43817,8.38,72964.0,3.37,-28.79,-29.35,0,*7A
1514286266.76,43818,8.38,72966.3,3.37,-29.51,-30.01,0,*71
1514286268.01,43819,8.38,72964.3,3.37,-28.97,-29.51,0,*76
1514286269.29,43820,8.38,72962.3,3.41,-28.59,-29.01,0,*7A
1514286270.57,43821,8.38,72960.0,3.41,-28.43,-28.75,0,*72
1514286271.85,43822,8.38,72954.0,3.41,-28.91,-29.39,0,*77
1514286273.08,43823,8.38,72950.0,3.43,-28.97,-29.35,0,*7E
1514286274.33,43824,8.38,72948.8,3.43,-28.79,-29.35,0,*79
1514286275.56,43825,8.38,72954.0,3.45,-29.07,-29.57,0,*72
1514286276.79,43826,8.38,72954.0,3.43,-28.85,-29.39,0,*74
1514286278.02,43827,8.38,72952.5,3.45,-28.37,-28.69,0,*7E
1514286279.29,43828,8.38,72952.0,3.49,-28.43,-28.79,0,*7F
1514286280.57,43829,8.38,72954.0,3.49,-28.43,-28.91,0,*78
1514286281.78,43830,8.38,72952.5,3.51,-28.37,-28.85,0,*7F
1514286283.01,43831,8.38,72956.3,3.51,-28.53,-28.91,0,*79
1514286284.24,43832,8.38,72952.8,3.51,-28.85,-29.29,0,*73
1514286285.51,43833,8.38,72952.5,3.53,-28.75,-29.29,0,*7F
1514286286.74,43834,8.38,72956.0,3.53,-29.07,-29.61,0,*70
1514286287.99,43835,8.38,72958.0,3.53,-29.29,-29.79,0,*74
1514286289.22,43836,8.38,72970.5,3.53,-29.61,-30.11,0,*7D
1514286290.45,43837,8.38,72966.8,3.53,-28.97,-29.61,0,*7B
1514286291.72,43838,8.38,72968.3,3.53,-28.75,-29.29,0,*74
1514286292.97,43839,8.38,72968.5,3.53,-29.29,-29.95,0,*7A
1514286294.2,43840,8.38,72964.5,3.55,-29.57,-30.05,0,*7A
1514286295.41,43841,8.38,72954.3,3.55,-29.57,-30.11,0,*7E
1514286296.67,43842,8.38,72950.0,3.55,-28.79,-29.35,0,*7E
1514286297.91,43843,8.38,72956.8,3.53,-29.29,-29.79,0,*75
1514286299.18,43844,8.38,72956.5,3.55,-28.91,-29.51,0,*7C
1514286300.41,43845,8.38,72972.3,3.55,-28.53,-28.91,0,*7E
1514286301.64,43846,8.38,72980.0,3.57,-28.37,-28.69,0,*7A
1514286302.89,43847,8.38,72978.3,3.57,-28.37,-28.79,0,*7A
1514286304.12,43848,8.38,72970.5,3.59,-28.15,-28.59,0,*79
1514286305.41,43849,8.38,72958.3,3.57,-28.21,-28.63,0,*78
1514286306.66,43850,8.38,72964.5,3.59,-28.25,-28.63,0,*7A
1514286307.93,43851,8.38,72962.3,3.61,-28.59,-29.13,0,*7D
1514286309.16,43852,8.38,72954.3,3.61,-29.07,-29.57,0,*74
1514286310.36,43853,8.38,72958.0,3.63,-29.07,-29.45,0,*74
1514286311.64,43854,8.38,72960.5,3.61,-28.91,-29.39,0,*74
1514286312.91,43855,8.38,72970.8,3.61,-28.79,-29.39,0,*73
1514286314.16,43856,8.38,72968.5,3.61,-29.39,-29.79,0,*71
1514286315.36,43857,8.38,72966.5,3.63,-29.45,-30.11,0,*7F
1514286316.58,43858,8.38,72960.3,3.61,-29.61,-30.11,0,*74
1514286317.81,43859,8.38,72954.8,3.61,-29.61,-30.11,0,*75
1514286319.09,43860,8.38,72914.3,3.61,-29.39,-29.89,0,*7B
1514286320.35,43861,8.38,72918.5,3.61,-29.89,-30.33,0,*78
1514286321.58,43862,8.38,72928.0,3.59,-30.33,-30.89,0,*78
1514286322.79,43863,8.38,72946.5,3.59,-30.33,-30.83,0,*73
1514286324.04,43864,8.38,72950.8,3.57,-29.73,-30.27,0,*78
1514286325.3,43865,8.38,72960.0,3.59,-29.51,-30.05,0,*77
1514286326.53,43866,8.38,72958.5,3.59,-28.85,-29.35,0,*77
1514286327.77,43867,8.38,72956.8,3.59,-28.63,-29.13,0,*7A
1514286329.02,43868,8.38,72956.0,3.61,-28.59,-28.97,0,*7A
1514286330.27,43869,8.38,72952.8,3.61,-28.37,-28.75,0,*7F
1514286331.46,43870,8.38,72950.3,3.63,-28.69,-29.23,0,*7C
1514286332.71,43871,8.38,72960.8,3.61,-29.13,-29.57,0,*70
1514286333.94,43872,8.38,72960.0,3.65,-28.85,-29.35,0,*7D
1514286335.15,43873,8.38,72960.0,3.63,-29.45,-29.95,0,*7D
1514286336.41,43874,8.38,72974.8,3.63,-29.39,-29.89,0,*7C
1514286337.66,43875,8.38,72974.0,3.63,-29.73,-30.17,0,*7C
1514286338.86,43876,8.38,72966.0,3.63,-29.23,-29.79,0,*7A
1514286340.11,43877,8.38,72964.3,3.63,-29.29,-29.73,0,*7B
1514286341.33,43878,8.38,72958.5,3.63,-29.73,-30.27,0,*72
1514286342.56,43879,8.38,72958.0,3.63,-29.61,-30.01,0,*74
1514286343.76,43880,8.38,72958.0,3.63,-29.23,-29.61,0,*7A
1514286344.96,43881,8.38,72960.3,3.63,-29.57,-30.11,0,*77
1514286346.19,43882,8.38,72972.0,3.61,-29.95,-30.45,0,*79
1514286347.45,43883,8.38,72980.3,3.61,-29.79,-30.17,0,*7D
1514286348.64,43884,8.38,72980.8,3.63,-29.61,-30.11,0,*77
1514286349.89,43885,8.38,72962.3,3.63,-28.79,-29.39,0,*7C
1514286351.12,43886,8.38,72966.5,3.63,-30.01,-30.45,0,*7A
1514286352.34,43887,8.38,72986.5,3.63,-29.13,-29.57,0,*7B
1514286353.56,43888,8.38,72980.0,3.63,-28.75,-29.23,0,*76
1514286354.81,43889,8.38,72976.0,3.63,-28.91,-29.39,0,*76
1514286356.04,43890,8.38,72958.8,3.65,-29.01,-29.57,0,*78
1514286357.25,43891,8.38,72952.0,3.65,-29.23,-29.83,0,*70
1514286358.46,43892,8.38,72952.0,3.65,-29.67,-30.23,0,*71
1514286359.69,43893,8.38,72944.0,3.65,-29.73,-30.23,0,*75
1514286360.95,43894,8.38,72938.0,3.63,-30.17,-30.77,0,*7F
1514286362.18,43895,8.38,72934.0,3.63,-30.11,-30.61,0,*7F
1514286363.41,43896,8.38,72946.3,3.63,-29.89,-30.45,0,*73
1514286364.64,43897,8.38,72948.8,3.61,-29.79,-30.27,0,*7B
1514286365.9,43898,8.38,72954.0,3.61,-29.61,-30.17,0,*7E
1514286367.17,43899,8.38,72948.8,3.61,-29.29,-29.89,0,*7C
1514286368.41,43900,8.38,72948.5,3.63,-29.45,-30.01,0,*7D
1514286369.66,43901,8.38,72954.5,3.61,-29.61,-30.01,0,*78
1514286370.92,43902,8.38,72946.5,3.61,-29.45,-29.89,0,*75
1514286372.17,43903,8.38,72954.0,3.65,-29.17,-29.73,0,*72
1514286373.4,43904,8.38,72948.8,3.61,-29.45,-29.95,0,*7E
1514286374.62,43905,8.38,72940.3,3.63,-29.29,-29.79,0,*75
1514286375.9,43906,8.38,72936.5,3.61,-29.39,-29.89,0,*7A
1514286377.14,43907,8.38,72944.0,3.63,-29.45,-29.89,0,*72
1514286378.39,43908,8.38,72950.8,3.65,-28.91,-29.39,0,*78
1514286379.63,43909,8.38,72946.8,3.65,-28.53,-28.91,0,*74
1514286380.85,43910,8.38,72944.0,3.65,-28.75,-29.07,0,*76
1514286382.07,43911,8.38,72946.5,3.67,-28.69,-29.07,0,*78
1514286383.35,43912,8.38,72946.3,3.67,-29.01,-29.39,0,*79
1514286384.61,43913,8.38,72954.5,3.67,-29.35,-29.67,0,*74
1514286385.82,43914,8.38,72950.8,3.65,-29.23,-29.57,0,*75
1514286387.07,43915,8.38,72948.5,3.67,-29.23,-29.73,0,*70
1514286388.36,43916,8.38,72942.3,3.67,-29.39,-29.89,0,*7D
1514286389.6,43917,8.38,72950.8,3.65,-29.95,-30.39,0,*7B
1514286390.83,43918,8.38,72948.5,3.67,-29.57,-29.95,0,*76
1514286392.08,43919,8.38,72954.5,3.67,-29.73,-30.27,0,*70
1514286393.31,43920,8.38,72956.0,3.65,-29.73,-30.23,0,*7C
1514286394.56,43921,8.38,72956.0,3.65,-30.05,-30.39,0,*7F
1514286395.79,43922,8.38,72958.0,3.65,-30.05,-30.45,0,*77
1514286397.0,43923,8.38,72958.5,3.65,-29.67,-30.11,0,*7B
1514286398.2,43924,8.38,72956.3,3.65,-29.83,-30.23,0,*77
1514286399.44,43925,8.38,72948.8,3.65,-29.67,-29.89,0,*74
1514286400.65,43926,8.38,72948.3,3.65,-29.57,-29.95,0,*79
1514286401.89,43927,8.38,72942.3,3.65,-29.39,-29.83,0,*77
1514286403.15,43928,8.38,72938.8,3.65,-29.39,-29.73,0,*77
1514286404.39,43929,8.38,72936.3,3.65,-29.57,-30.05,0,*77
1514286405.6,43930,8.38,72936.3,3.65,-29.67,-29.95,0,*7D
1514286406.85,43931,8.38,72934.8,3.65,-29.73,-30.05,0,*78
1514286408.11,43932,8.38,72942.0,3.65,-29.17,-29.51,0,*70
1514286409.36,43933,8.38,72948.5,3.67,-29.07,-29.39,0,*7C
1514286410.61,43934,8.38,72946.3,3.65,-29.01,-29.39,0,*7F
1514286411.89,43935,8.38,72954.5,3.67,-28.63,-28.91,0,*7A
1514286413.12,43936,8.38,72952.0,3.67,-28.53,-28.69,0,*7D
1514286414.37,43937,8.38,72952.0,3.71,-28.15,-28.43,0,*71
1514286415.63,43938,8.38,72950.3,3.71,-28.09,-28.31,0,*76
1514286416.85,43939,8.38,72944.5,3.73,-27.93,-28.09,0,*72
1514286418.11,43940,8.38,72948.0,3.73,-28.09,-28.25,0,*7E
1514286419.33,43941,8.38,72940.0,3.75,-28.37,-28.53,0,*75
1514286420.55,43942,8.38,72942.3,3.77,-28.31,-28.47,0,*77
1514286421.76,43943,8.38,72938.0,3.77,-28.53,-28.85,0,*7C
1514286422.96,43944,8.38,72940.5,3.77,-28.53,-28.85,0,*7B
1514286424.21,43945,8.38,72938.8,3.77,-28.59,-29.01,0,*7D
1514286425.41,43946,8.38,72938.5,3.77,-28.53,-28.53,0,*72
1514286426.64,43947,8.38,72944.5,3.77,-27.99,-28.15,0,*78
1514286427.92,43948,8.38,72942.8,3.79,-28.05,-28.21,0,*74
1514286429.16,43949,8.38,72934.8,3.81,-28.43,-28.79,0,*7D
1514286430.41,43950,8.38,72928.5,3.81,-28.43,-28.79,0,*75
1514286431.63,43951,8.38,72932.0,3.81,-28.09,-28.31,0,*76
1514286432.83,43952,8.38,72924.5,3.85,-27.93,-27.93,0,*7A
1514286434.09,43953,8.38,72924.8,3.85,-28.05,-28.25,0,*79
1514286435.33,43954,8.38,72928.5,3.85,-28.43,-28.75,0,*79
1514286436.54,43955,8.38,72928.5,3.85,-28.75,-29.07,0,*79
1514286437.79,43956,8.38,72930.0,3.85,-28.43,-28.63,0,*7C
1514286439.04,43957,8.38,72930.3,3.85,-28.25,-28.43,0,*7F
1514286440.27,43958,8.38,72938.3,3.87,-28.37,-28.69,0,*79
1514286441.5,43959,8.38,72940.8,3.89,-28.21,-28.37,0,*7A
1514286442.72,43960,8.38,72942.5,3.87,-28.31,-28.37,0,*7F
1514286443.95,43961,8.38,72942.3,3.89,-28.21,-28.37,0,*71
1514286445.22,43962,8.38,72936.8,3.95,-28.09,-28.25,0,*76
1514286446.47,43963,8.38,72942.8,3.93,-28.09,-28.25,0,*71
1514286447.69,43964,8.38,72944.3,3.95,-27.93,-27.93,0,*7E
1514286448.96,43965,8.38,72940.0,3.95,-28.09,-28.25,0,*71
1514286450.22,43966,8.38,72940.0,3.97,-28.31,-28.59,0,*70
1514286451.47,43967,8.38,72936.0,3.97,-28.31,-28.59,0,*71
1514286452.72,43968,8.38,72936.0,3.97,-28.75,-28.97,0,*7C
1514286454.0,43969,8.38,72932.5,3.97,-28.21,-28.47,0,*71
1514286455.27,43970,8.38,72934.5,3.99,-28.21,-28.21,0,*77
1514286456.55,43971,8.38,72940.5,3.97,-28.63,-28.91,0,*75
1514286457.77,43972,8.38,72950.0,3.99,-28.43,-28.69,0,*7D
1514286459.05,43973,8.38,72950.5,3.97,-28.47,-28.91,0,*71
1514286460.28,43974,8.38,72946.5,3.99,-28.15,-28.21,0,*74
1514286461.51,43975,8.38,72948.8,3.99,-28.15,-28.21,0,*75
1514286462.77,43976,8.38,72948.0,3.99,-28.05,-28.05,0,*71
1514286464.03,43977,8.38,72950.8,3.99,-28.25,-28.43,0,*70
1514286465.26,43978,8.38,72952.5,3.99,-28.59,-28.85,0,*7E
1514286466.49,43979,8.38,72954.0,4.03,-28.53,-28.79,0,*72
1514286467.76,43980,8.38,72960.8,4.01,-28.75,-28.91,0,*74
1514286468.96,43981,8.38,72958.3,4.03,-28.69,-28.97,0,*7C
1514286470.24,43982,8.38,72952.5,4.01,-28.25,-28.59,0,*77
1514286471.45,43983,8.38,72972.5,4.03,-28.53,-28.69,0,*76
1514286472.69,43984,8.38,72976.3,4.03,-29.01,-29.17,0,*7F
1514286473.92,43985,8.38,72964.0,4.03,-29.29,-29.57,0,*70
1514286475.17,43986,8.38,72950.8,4.03,-29.17,-29.51,0,*78
1514286476.42,43987,8.38,72944.8,4.03,-29.17,-29.35,0,*7B
1514286477.68,43988,8.38,72952.5,4.01,-29.07,-29.35,0,*77
1514286478.91,43989,8.38,72962.8,4.01,-29.45,-29.79,0,*78
1514286480.14,43990,8.38,72972.0,4.01,-29.45,-29.61,0,*79
1514286481.37,43991,8.38,72972.0,4.01,-29.45,-29.45,0,*7E
1514286482.62,43992,8.38,72970.8,4.01,-29.17,-29.23,0,*7A
1514286483.88,43993,8.38,72966.5,3.99,-28.91,-29.01,0,*72
1514286485.16,43994,8.38,72966.3,4.01,-28.91,-29.01,0,*73
1514286486.44,43995,8.38,72970.3,4.01,-29.35,-29.39,0,*76
1514286487.68,43996,8.38,72968.8,4.01,-29.57,-29.61,0,*7C
1514286488.96,43997,8.38,72962.8,4.01,-28.91,-29.01,0,*70
1514286490.21,43998,8.38,72964.3,4.01,-29.01,-29.07,0,*71
1514286491.49,43999,8.38,72972.3,4.01,-28.75,-28.91,0,*7C
1514286492.74,44000,8.38,72970.0,4.01,-29.57,-29.73,0,*7E
1514286493.99,44001,8.38,72966.8,4.01,-30.05,-30.11,0,*7C
1514286495.22,44002,8.38,72964.3,3.97,-30.27,-30.45,0,*76
1514286496.48,44003,8.38,72972.0,3.97,-29.83,-30.01,0,*71
1514286497.72,44004,8.38,72976.5,3.97,-29.61,-29.83,0,*78
1514286498.95,44005,8.38,72976.8,3.97,-29.67,-29.83,0,*7F
1514286500.21,44006,8.38,72974.8,3.95,-29.51,-29.61,0,*77
1514286501.47,44007,8.38,72972.5,3.95,-28.75,-28.79,0,*79
1514286502.75,44008,8.38,72976.3,3.97,-28.63,-28.63,0,*78
1514286504.03,44009,8.38,72972.8,3.97,-28.59,-28.75,0,*77
1514286505.26,44010,8.38,72970.0,3.99,-28.37,-28.43,0,*7C
1514286506.52,44011,8.38,72966.0,3.99,-28.25,-28.43,0,*7E
1514286507.74,44012,8.38,72952.0,3.99,-28.43,-28.53,0,*7C
1514286508.98,44013,8.38,72950.0,3.99,-28.53,-28.59,0,*76
1514286510.24,44014,8.38,72954.5,3.99,-28.21,-28.43,0,*7F
1514286511.49,44015,8.38,72950.3,4.01,-28.53,-28.59,0,*76
1514286512.72,44016,8.38,72944.8,4.03,-28.43,-28.37,0,*7E
1514286514.0,44017,8.38,72950.0,4.01,-28.21,-28.25,0,*7A